World > North America > United States > Minnesota

Balaton, Minnesota Regional Weather

Lat: 44.23N, Lon: 95.87W
Wx Zone: MNZ072
Warning NWS WEATHER ALERT - (More Info. Click Here) Warning
Feedback

Balaton, MN Regional Weather

Expires:202002231100;;964364
ASUS43 KMPX 231010
RWRMN 
WEATHER ROUNDUP FOR MINNESOTA
NATIONAL WEATHER SERVICE TWIN CITIES/CHANHASSEN MN
400 AM CST SUN FEB 23 2020


NOTE: "FAIR" INDICATES FEW OR NO CLOUDS BELOW 12,000 FEET WITH NO
SIGNIFICANT WEATHER AND/OR OBSTRUCTIONS TO VISIBILITY. N/A MEANS
CURRENT SKY AND/OR WEATHER CONDITIONS ARE NOT AVAILABLE.


MNZ071>073-080-081-089-090-097-098-231100-
   Southwest Minnesota   
  
CITY           SKY/WX    TMP DP  RH WIND       PRES   REMARKS
MONTEVIDEO     CLEAR     28  19  69 W8        29.81F WCI  20          
GRANITE FALLS  CLEAR     31  24  74 SW12      29.84F WCI  22          
CANBY          CLEAR     36  25  65 SW16      29.84S                  
MARSHALL       CLEAR     36  25  64 W18       29.84S                  
REDWOOD FALLS  CLEAR     33  22  63 W12       29.83S WCI  24          
OLIVIA         CLEAR     23  19  86 SW8       29.81F WCI  14          
PIPESTONE      CLEAR     27  21  80 W6        29.87R WCI  20          
WINDOM         CLEAR     27  21  80 SW8       29.85S WCI  18          
WORTHINGTON    CLEAR     34  24  67 W13       29.88S WCI  25          
SLAYTON        CLEAR     35  24  63 W14       29.87S WCI  26          
$$

SKY/WX - Weather  TMP - Temperature  DP - Dew Point  RH - Relative Humidity
WIND - Wind Direction/Speed PRES - Barometric Pressure VSB - Visibility
WCI - Wind Chill Index E13G22 Wind - East Wind 13 mph/Gusts of 22 mph
Balaton Weather Map
What is UTC time?